WTTO2: Illinois River, Watts, OK

Data processed at Fri Dec 08 2017 23:34


All information presented herein is the property of the government of the United States of America and may be revised or deleted at any time without prior notice.
Dissemination of this information without the expressed written consent of the Public Affairs Office, Tulsa District U.S. Army Corps of Engineers is strictly prohibited.
These data are gathered electronically and, as presented, have not undergone any form of quality control. These data are not guaranteed to be valid or correct.
Go to home page.
Go to station list.

Upstream stations:

Downstream station:
Previous Day
Next Day
Current Day
    
SHEF ID:       WTTO2     Illinois River near Watts, OK
STATION TYPE:  

               PRECIP     STAGE  STAGE(2)  RIV-FLOW   VOLTAGE  BAT-LOAD
                   in        ft        ft       cfs      volt      volt
              Ccp-Rev   Ccp-Rev   Ccp-Rev   Ccp-Rev   Ccp-Rev   Ccp-Rev
(US/Central)
12/06 00:00      0.00      2.82      2.40       226     12.80     11.83
12/06 01:00      0.00      2.82      2.40       226     12.80     11.77
12/06 02:00      0.00      2.82      2.40       226     12.80     11.77
12/06 03:00      0.00      2.82      2.40       226     12.80     11.77
12/06 04:00      0.00      2.82      2.39       226     12.70     11.66
12/06 05:00      0.00      2.81      2.39       223     12.70     11.66
12/06 06:00      0.00      2.81      2.36       223     12.70     11.66
12/06 07:00      0.00      2.81      2.35       223     12.70     11.66
12/06 08:00      0.00      2.81      2.35       223     13.90     11.66
12/06 09:00      0.00      2.81      2.35       223     13.90     13.00
12/06 10:00      0.00      2.81      2.36       223     13.90     13.07
12/06 11:00      0.00      2.81      2.36       223     14.00     13.00
12/06 12:00      0.00      2.80      2.36       221     14.00     13.07
12/06 13:00      0.00      2.80      2.37       221     14.00     13.07
12/06 14:00      0.00      2.77      2.38       213     14.00     13.07
12/06 15:00      0.00      2.74      2.38       206     14.00     13.00
12/06 16:00      0.00      2.80      2.39       221     14.00     13.00
12/06 17:00      0.00      2.80      2.39       221     13.40     12.83
12/06 18:00      0.00      2.80      2.39       221     13.10     12.42
12/06 19:00      0.00      2.80      2.38       221     13.00     12.13
12/06 20:00      0.00      2.79      2.38       218     12.90     12.01
12/06 21:00      0.00      2.79      2.38       218     12.90     11.95
12/06 22:00      0.00      2.79      2.38       218     12.90     11.89
12/06 23:00      0.00      2.79      2.37       218     12.90     11.89